Blountville, TN

9:46 PM EST on February 26, 2017 (GMT -0500)
Tri-Cities Regional Tennessee / Virginia

Weather History for KTRI - February, 2012

Change the Weather History Date:

Monday, February 6, 2012

  Actual Average Record
Temperature  
Mean Temperature 43 °F 37 °F  
Max Temperature 51 °F 48 °F 68 °F (1991)
Min Temperature 35 °F 27 °F 0 °F (1996)
Degree Days  
Heating Degree Days 22 28  
Month to date heating degree days 120 170  
Since 1 July heating degree days 2358 2824  
Cooling Degree Days 0 0  
Month to date cooling degree days 0 0  
Year to date cooling degree days 0 0  
Moisture  
Dew Point 36 °F    
Average Humidity 77    
Maximum Humidity 92    
Minimum Humidity 61    
Precipitation  
Precipitation 0.00 in 0.13 in 1.14 in (1955)
Month to date precipitation 1.35 0.75  
Year to date precipitation 5.95 4.12  
Snow  
Snow 0.00 in 0.10 in - ()
Month to date snowfall 0.0 0.8  
Since 1 July snowfall 1.2 8.2  
Snow Depth 0.00 in    
Sea Level Pressure  
Sea Level Pressure 30.15 in    
Wind  
Wind Speed 4 mph (WNW)    
Max Wind Speed 13 mph    
Max Gust Speed 16 mph    
Visibility 10 miles    
Events      
T = Trace of Precipitation, MM = Missing Value Source: NWS Daily Summary

Daily Weather History Graph

Daily Weather History Graph

Search for Another Location

Airport or City:

Trip Planner

Search our weather history database for the weather conditions in past years. The results will help you decide how hot, cold, wet, or windy it might be!

Date:

Astronomy

Feb. 06, 2012 Rise Set
Actual Time 7:27 AM EST 6:00 PM EST
Civil Twilight 7:00 AM EST 6:27 PM EST
Nautical Twilight 6:29 AM EST 6:58 PM EST
Astronomical Twilight 5:59 AM EST 7:28 PM EST
Moon 5:03 PM EST (2/6) 6:17 AM EST (2/6)
Length of Visible Light 11h 27m
Length of Day
10h 33m
Waxing Gibbous, 98% of the Moon is Illuminated
Feb 6
Waxing Gibbous
Feb 7
Full
Feb 14
Last Quarter
Feb 21
New
Feb 29
First Quarter

Hourly Weather History & Observations

Time (EST) Temp. Windchill Dew Point Humidity Pressure Visibility Wind Dir Wind Speed Gust Speed Precip Events Conditions
12:53 AM 37.0 °F 34.5 °F 35.1 °F 93% 30.16 in 10.0 mi North 3.5 mph - N/A   Overcast
1:13 AM 39.2 °F 35.9 °F 35.6 °F 87% 30.17 in 10.0 mi North 4.6 mph - N/A   Overcast
1:43 AM 39.2 °F - 35.6 °F 87% 30.18 in 10.0 mi Calm Calm - N/A   Overcast
1:53 AM 39.0 °F - 36.0 °F 89% 30.15 in 10.0 mi Calm Calm - N/A   Overcast
2:53 AM 39.9 °F - 36.0 °F 86% 30.14 in 10.0 mi Calm Calm - N/A   Overcast
3:53 AM 39.9 °F - 36.0 °F 86% 30.14 in 10.0 mi Calm Calm - N/A   Overcast
4:53 AM 41.0 °F - 37.0 °F 86% 30.15 in 10.0 mi Calm Calm - N/A   Overcast
5:53 AM 39.9 °F - 36.0 °F 86% 30.16 in 10.0 mi Calm Calm - N/A   Overcast
6:00 AM 39.2 °F - 35.6 °F 87% 30.17 in 10.0 mi Calm Calm - N/A   Overcast
6:34 AM 39.2 °F - 37.4 °F 93% 30.17 in 10.0 mi Calm Calm - N/A   Overcast
6:53 AM 39.9 °F - 37.0 °F 89% 30.16 in 10.0 mi Calm Calm - N/A   Overcast
7:53 AM 39.9 °F - 36.0 °F 86% 30.18 in 10.0 mi Calm Calm - N/A   Overcast
8:53 AM 41.0 °F - 36.0 °F 82% 30.18 in 10.0 mi Calm Calm - N/A   Overcast
9:53 AM 44.1 °F 42.5 °F 37.0 °F 76% 30.19 in 10.0 mi East 3.5 mph - N/A   Mostly Cloudy
10:53 AM 46.9 °F - 37.9 °F 71% 30.19 in 10.0 mi Calm Calm - N/A   Mostly Cloudy
11:53 AM 48.9 °F - 39.0 °F 69% 30.17 in 10.0 mi Calm Calm - N/A   Mostly Cloudy
12:53 PM 50.0 °F - 39.0 °F 66% 30.14 in 10.0 mi Variable 4.6 mph - N/A   Overcast
1:53 PM 50.0 °F - 41.0 °F 71% 30.13 in 10.0 mi WNW 8.1 mph - N/A   Overcast
2:34 PM 50.0 °F - 39.2 °F 66% 30.13 in 10.0 mi West 8.1 mph - N/A   Overcast
2:53 PM 50.0 °F - 37.9 °F 63% 30.11 in 10.0 mi SW 10.4 mph - N/A   Overcast
3:53 PM 50.0 °F - 37.9 °F 63% 30.11 in 10.0 mi SW 8.1 mph - N/A   Mostly Cloudy
4:53 PM 50.0 °F - 37.0 °F 61% 30.11 in 10.0 mi SW 9.2 mph - N/A   Overcast
5:53 PM 48.9 °F - 37.0 °F 64% 30.12 in 10.0 mi West 12.7 mph - N/A   Overcast
6:53 PM 46.9 °F - 36.0 °F 66% 30.14 in 10.0 mi West 6.9 mph - N/A   Overcast
7:53 PM 45.0 °F 41.2 °F 35.1 °F 68% 30.15 in 10.0 mi WNW 6.9 mph - N/A   Scattered Clouds
8:53 PM 43.0 °F 39.5 °F 34.0 °F 71% 30.16 in 10.0 mi NW 5.8 mph - N/A   Partly Cloudy
9:53 PM 42.1 °F - 33.1 °F 70% 30.16 in 10.0 mi Calm Calm - N/A   Clear
10:53 PM 39.0 °F 36.8 °F 32.0 °F 76% 30.17 in 10.0 mi West 3.5 mph - N/A   Clear
11:53 PM 35.1 °F - 30.9 °F 85% 30.17 in 10.0 mi Calm Calm - N/A   Clear